星链-3877 (STARLINK-3877 )

导读

STARLINK-3877是美国太空探索技术公司Starlink卫星互联网项目的卫星,于2022年4月29日发射升空,属于Starlink星座的第二批组网卫星。该卫星运行在近地轨道,旨在为全球提供高速低延迟的互联网接入服务,尤其覆盖偏远与网络基础设施匮乏区域,是Starlink大规模星座组网进程中的组成单元。

Basic Information
目录编号:
52355
目录名称:
STARLINK-3877
国际标识:
2022-045AA
轨道中心:
EARTH
卫星名称:
星链-3877
卫星全名:
星链-3877 (STARLINK-3877 )
卫星状态:
在轨 (已飞行1589 天)
发射日期:
2022-04-29 UTC
国别 :
美国 (US)
星等 :
--
Orbit Information
数据来源 国际轨道数据
星历时间: 2026-09-02T16:37:17+0800
1天前
查看轨道信息
半长轴: 6840.872km
偏心率: 0.0001081
轨道倾角: 53.160°
近地点辐角 92.457°
升交点赤经 120.649°
平近点角 267.656°
近地点: 461.995km
远地点: 463.475km
周期: 93.848分钟
每日圈数: 15.343894
Detailed Information
固有亮度:
5
最大亮度:
2.5
卫星平台:
Starlink v1.5
覆盖范围:
全球
运营商:
太空探索技术公司
运营商所在国:
美国
制造商(研发单位):
太空探索技术公司
制造商所在国:
美国
使用方式:
暂无
Satellite Introduction
星链(Starlink)计划是由太空探索技术公司(SpaceX)提出的一个巨型低轨卫星互联网星座项目,计划在2019年至2024年间在太空搭建由约1.2万颗卫星组成的“星链”网络,其中1584颗将部署在地球上空550千米处的近地轨道,并从2020年开始工作。该卫星仍在工作。
2D Orbit Map
3D Orbit Map
Orbit Altitude Analysis Chart
Orbit Inclination Analysis Chart
Orbit Comprehensive Analysis Chart
View Comprehensive Chart
Conjunction Data List
Event ID Objects TCA Miss Dist (km) Collision Risk Probability Collision Risk Index (CRI) Action
CDM_260905-054405-235506-231121
2026-09-05T
05:44:18+0000
0.867 km
远距离
1.897684E-5 中风险 0.61
CDM_260902-231003-279105-235523
SEEDS (32791)
2026-09-02T
23:10:00+0000
2.345 km
极远距离
1.887672E-6 低风险 0.41
CDM_260904-130705-235505-246421
2026-09-04T
13:07:07+0000
2.799 km
极远距离
1.270551E-6 低风险 0.37
CDM_260905-071805-235506-231121
2026-09-05T
07:18:05+0000
2.363 km
极远距离
9.63475E-7 极低风险 0.35